CW8812 Weather Reports


time (UTC)temp
F
wind
direction
speed
knots
gust
knots
rain 1hr
in
rain 24hr
in
rain mn
in
humidity
%
barometer
mb
20260505052538 56 0.0 0.0 0.00 0.00 0.00 86 1007.6
20260505051517 57 0.0 0.0 0.00 0.00 0.00 86 1007.6
20260505050517 57 0.0 0.0 0.00 0.00 0.00 85 1007.6
20260505041516 57 225 0.9 3.5 0.00 0.00 0.00 83 1007.9
20260505040516 58 225 1.7 6.1 0.00 0.00 0.00 82 1007.8
20260505035516 58 225 1.7 5.2 0.00 0.00 0.00 82 1007.8
20260505034516 58 225 0.9 3.5 0.00 0.00 0.00 82 1007.8
20260505033515 58 225 1.7 5.2 0.00 0.00 0.00 82 1007.8
20260505032516 58 225 0.9 4.3 0.00 0.00 0.00 83 1007.9
20260505031516 58 225 0.9 2.6 0.00 0.00 0.00 83 1007.9
20260505030516 58 225 0.9 5.2 0.00 0.00 0.00 83 1007.9
20260505025556 57 203 0.9 5.2 0.00 0.00 0.00 83 1008.0
20260505024517 57 203 0.9 3.5 0.00 0.00 0.00 83 1008.0
20260505023535 57 0.0 0.0 0.00 0.00 0.00 83 1008.0
20260505022517 57 203 0.9 4.3 0.00 0.00 0.00 83 1008.0
20260505021518 57 0.0 4.3 0.00 0.00 0.00 82 1008.0
20260505020517 58 0.0 0.0 0.00 0.00 0.00 81 1008.0
20260505015517 58 0.0 0.0 0.00 0.00 0.00 80 1008.0
20260505014517 58 203 0.9 7.0 0.00 0.00 0.00 79 1008.0
20260505013537 59 0.0 4.3 0.00 0.00 0.00 76 1008.0
20260505012517 59 0.0 2.6 0.00 0.00 0.00 75 1007.8
20260505011517 59 0.0 0.0 0.00 0.00 0.00 74 1007.8
20260505010517 60 0.0 0.0 0.00 0.00 0.00 73 1007.7
20260505005557 60 203 0.9 2.6 0.00 0.00 0.00 73 1007.6
20260505004517 60 203 0.9 5.2 0.00 0.00 0.00 72 1007.6
20260505003538 60 203 0.9 5.2 0.00 0.00 0.00 71 1007.5
20260505002517 60 225 0.9 5.2 0.00 0.00 0.00 71 1007.3
20260505001517 61 225 2.6 5.2 0.00 0.00 0.00 70 1007.3
20260505000537 61 0.0 0.0 0.00 0.00 0.00 69 1007.2
20260504235517 61 225 1.7 6.1 0.00 0.00 0.00 69 1007.1
20260504234517 61 203 0.9 3.5 0.00 0.00 0.00 68 1007.1
20260504233517 62 203 1.7 5.2 0.00 0.00 0.00 67 1007.1
20260504232518 62 203 1.7 6.1 0.00 0.00 0.00 66 1007.1
20260504231518 62 203 0.9 6.1 0.00 0.00 0.00 65 1007.1
20260504230538 62 225 0.9 5.2 0.00 0.00 0.00 66 1007.2
20260504225537 62 203 1.7 4.3 0.00 0.00 0.00 66 1007.1
20260504224518 62 203 1.7 6.1 0.00 0.00 0.00 65 1007.1
20260504223517 63 0.0 4.3 0.00 0.00 0.00 64 1007.1
20260504222517 63 270 0.9 5.2 0.00 0.00 0.00 64 1007.1
20260504221517 64 270 1.7 4.3 0.00 0.00 0.00 63 1007.1
20260504220538 63 225 0.9 3.5 0.00 0.00 0.00 64 1007.1
20260504215518 63 203 1.7 5.2 0.00 0.00 0.00 64 1007.2
20260504214517 63 203 2.6 5.2 0.00 0.00 0.00 64 1007.2
20260504213516 63 203 2.6 7.0 0.00 0.00 0.00 64 1007.2
20260504212517 64 225 0.9 5.2 0.00 0.00 0.00 63 1007.3
20260504211517 64 225 1.7 5.2 0.00 0.00 0.00 62 1007.3
20260504210516 64 225 0.9 4.3 0.00 0.00 0.00 62 1007.3
20260504205516 64 203 2.6 6.1 0.00 0.00 0.00 62 1007.4
20260504204520 65 203 1.7 4.3 0.00 0.00 0.00 62 1007.4
20260504203557 66 225 0.9 5.2 0.00 0.00 0.00 60 1007.5
20260504202516 65 225 3.5 8.7 0.00 0.00 0.00 59 1007.4
20260504201537 65 225 3.5 7.8 0.00 0.00 0.00 58 1007.4
20260504200516 66 225 2.6 7.0 0.00 0.00 0.00 58 1007.4
20260504195517 66 225 2.6 6.1 0.00 0.00 0.00 58 1007.5
20260504194536 66 225 2.6 5.2 0.00 0.00 0.00 57 1007.5
20260504193517 66 203 1.7 5.2 0.00 0.00 0.00 56 1007.7
20260504192517 66 225 1.7 4.3 0.00 0.00 0.00 57 1007.8
20260504191516 66 225 2.6 7.0 0.00 0.00 0.00 57 1007.8
20260504190516 67 225 2.6 7.0 0.00 0.00 0.00 54 1008.0
20260504185516 67 203 1.7 6.1 0.00 0.00 0.00 55 1008.3
20260504184516 67 0.0 2.6 0.00 0.00 0.00 55 1008.3
20260504183516 66 203 2.6 5.2 0.00 0.00 0.00 56 1008.4
20260504182517 67 203 2.6 7.0 0.00 0.00 0.00 56 1008.6
20260504181517 68 180 0.9 4.3 0.00 0.00 0.00 54 1008.6
20260504180516 68 203 0.9 6.1 0.00 0.00 0.00 53 1008.7
20260504175516 68 225 0.9 5.2 0.00 0.00 0.00 54 1008.8
20260504174516 67 225 0.9 5.2 0.00 0.00 0.00 57 1008.8
20260504173516 68 225 0.9 4.3 0.00 0.00 0.00 53 1009.0
20260504172517 68 225 1.7 5.2 0.00 0.00 0.00 54 1009.1
20260504171516 67 203 1.7 5.2 0.00 0.00 0.00 54 1009.1
20260504170517 68 225 0.9 4.3 0.00 0.00 0.00 54 1009.4
20260504150516 66 203 2.6 6.1 0.00 0.00 0.00 45 1010.4
20260504140516 65 270 3.5 9.6 0.00 0.00 0.00 40 1010.6
20260504130515 62 225 1.7 5.2 0.00 0.00 0.00 52 1011.1
20260504110537 50 0.0 0.0 0.00 0.00 0.00 74 1011.9
20260504100537 46 0.0 0.0 0.00 0.00 0.00 74 1012.1
20260504081517 49 0.0 0.0 0.00 0.00 0.00 70 1011.7
20260504080518 49 0.0 0.0 0.00 0.00 0.00 71 1011.7